Temperature
13 13 13 13 13 12 12 12 12 12 11 11 11 10 10 10 10 9 9 9 9 8 8 8 7 7 7 7 7 7 7 7 6 6 6 5 5 4 4 4 4 4 4
12 12 12 12 12 12 11 11 11 11 10 10 10 9 9 9 9 9 8 8 8 7 7 7 7 7 7 7 7 6 6 6 6 6 5 5 4 4 4 4 4 4 3
11 11 11 11 11 11 11 10 10 10 9 9 9 9 8 8 8 8 7 7 7 6 6 6 6 6 6 6 6 6 6 5 5 5 5 4 4 3 3 3 3 3 3
10 10 10 10 10 10 9 9 9 9 9 8 8 8 7 7 7 7 6 6 6 5 5 5 5 5 5 5 5 5 5 5 5 4 4 4 3 3 3 3 2 2 2
9 9 9 9 9 9 9 8 8 8 8 7 7 7 6 6 6 5 5 5 5 5 4 4 4 4 4 4 4 4 4 4 4 4 3 3 3 3 2 2 2 2 2
9 9 9 9 8 8 8 7 7 7 7 6 6 6 5 5 5 4 4 4 4 4 4 3 3 3 3 3 3 3 3 3 3 3 3 3 3 2 2 2 1 1 1
9 8 8 8 8 7 7 6 6 6 5 5 5 4 4 4 4 3 3 3 3 3 3 3 3 3 3 3 3 3 2 2 2 2 2 2 2 2 1 1 1 0 0
8 8 8 7 7 6 6 6 5 5 4 4 4 4 3 3 2 2 2 2 2 2 2 2 2 2 2 2 2 2 2 2 2 2 2 2 1 1 1 0 0 -0 -0
8 8 7 7 6 6 5 5 4 4 3 3 3 2 2 2 2 2 2 1 1 1 1 1 1 1 1 1 1 1 1 1 1 1 1 0 0 0 -0 -0 -0 -1 -1
8 7 7 6 6 5 5 4 3 3 3 2 2 2 1 1 1 1 1 1 1 1 1 0 0 1 0 0 0 0 1 1 0 0 -0 -0 -0 -1 -1 -1 -1 -1 -2
7 6 6 6 5 4 4 3 3 2 2 2 1 1 1 1 1 0 0 0 0 0 0 0 0 0 -0 -0 -0 -0 -0 -0 -0 -0 -1 -1 -1 -1 -1 -2 -2 -2 -2
6 6 6 5 5 4 3 3 2 2 1 1 1 1 0 0 0 0 -0 -0 -0 -0 -0 -0 -0 -0 -0 -1 -1 -1 -1 -1 -1 -1 -1 -1 -1 -2 -2 -2 -2 -3 -3
6 6 5 4 4 3 3 2 2 1 1 0 0 0 0 0 -0 -0 -0 -0 -1 -0 -0 -1 -1 -1 -1 -1 -1 -1 -1 -1 -1 -1 -1 -2 -2 -2 -3 -3 -3 -3 -3
5 5 4 4 3 3 2 2 1 1 0 0 0 -0 -0 -0 -0 -0 -1 -1 -1 -1 -1 -1 -1 -1 -1 -1 -1 -1 -1 -1 -1 -2 -2 -2 -2 -3 -3 -3 -3 -3 -3
4 4 4 3 2 2 2 1 1 0 0 -0 -0 -0 -0 -0 -0 -1 -1 -1 -1 -1 -1 -1 -1 -1 -1 -1 -1 -1 -1 -2 -2 -2 -2 -3 -3 -3 -3 -4 -4 -4 -4
4 3 3 2 2 1 1 1 0 0 -0 -0 -1 -1 -1 -1 -1 -1 -1 -1 -1 -2 -2 -1 -1 -1 -1 -1 -1 -1 -2 -2 -2 -2 -3 -3 -3 -3 -4 -4 -4 -4 -4
3 2 2 2 1 1 1 0 0 0 -0 -1 -1 -1 -1 -1 -1 -1 -1 -1 -2 -2 -2 -1 -1 -1 -1 -1 -1 -2 -2 -2 -2 -3 -3 -3 -4 -4 -4 -4 -5 -5 -5
2 2 2 1 1 1 0 0 -0 -0 -0 -1 -1 -1 -1 -1 -1 -1 -2 -2 -2 -1 -1 -1 -1 -1 -1 -1 -2 -2 -2 -2 -3 -3 -3 -3 -4 -4 -4 -5 -5 -5 -5
1 1 1 1 1 0 0 -0 -0 -1 -1 -1 -1 -1 -1 -1 -1 -2 -2 -2 -1 -1 -1 -1 -1 -1 -1 -2 -2 -2 -2 -2 -3 -3 -3 -3 -4 -4 -5 -5 -5 -5 -6
1 1 0 0 0 0 -0 -1 -1 -1 -1 -1 -1 -1 -1 -1 -1 -1 -2 -1 -1 -1 -1 -1 -1 -1 -2 -2 -2 -2 -2 -3 -3 -3 -3 -4 -4 -4 -5 -5 -5 -6 -6
0 0 -0 -0 -0 -0 -1 -1 -1 -1 -1 -1 -1 -1 -1 -1 -1 -1 -1 -1 -1 -1 -1 -1 -1 -2 -2 -2 -2 -3 -3 -3 -3 -3 -4 -4 -4 -5 -5 -5 -6 -6 -6
-0 -0 -0 -1 -1 -1 -1 -1 -1 -1 -1 -1 -1 -2 -2 -2 -2 -2 -2 -2 -2 -2 -2 -2 -2 -2 -2 -3 -3 -3 -3 -3 -3 -4 -4 -5 -5 -5 -5 -6 -6 -6 -7
-1 -1 -1 -1 -1 -1 -1 -2 -2 -2 -2 -2 -2 -2 -2 -2 -2 -2 -2 -2 -2 -2 -2 -2 -2 -2 -2 -3 -3 -3 -3 -4 -4 -4 -5 -5 -5 -6 -6 -6 -6 -7 -7
-1 -2 -2 -2 -2 -2 -2 -2 -2 -2 -2 -2 -2 -2 -3 -3 -3 -3 -3 -3 -3 -3 -3 -3 -3 -3 -3 -3 -3 -4 -4 -4 -5 -5 -5 -6 -6 -6 -7 -7 -7 -7 -8
-2 -2 -2 -3 -3 -3 -3 -3 -3 -3 -3 -3 -3 -3 -3 -3 -3 -3 -3 -3 -3 -3 -3 -3 -3 -3 -3 -4 -4 -4 -4 -5 -5 -6 -6 -6 -7 -7 -7 -7 -7 -8 -8
-3 -3 -3 -3 -3 -3 -3 -3 -3 -4 -4 -4 -4 -4 -4 -4 -4 -4 -3 -3 -4 -4 -4 -4 -4 -4 -4 -4 -5 -5 -5 -6 -6 -6 -7 -7 -7 -7 -8 -8 -8 -8 -8
Wind_Speed
7 7 7 6 6 6 5 5 5 4 4 3 3 3 2 2 1 1 1 1 2 2 1 2 2 2 1 1 1 1 0 1 3 2 2 2 2 3 4 6 7 8 8
7 7 7 7 7 6 6 6 5 5 4 4 3 3 3 3 2 2 2 2 2 2 3 3 2 2 3 2 2 2 1 1 3 4 2 2 2 2 3 3 4 6 6
8 8 7 7 6 6 6 6 5 5 4 4 4 3 3 3 3 3 3 3 3 3 3 3 3 3 3 2 2 2 1 2 3 4 3 2 2 1 2 2 3 3 3
8 8 8 7 7 7 6 6 5 5 4 4 4 4 4 3 3 3 3 4 5 5 4 4 4 3 3 3 2 2 2 3 4 5 4 3 2 1 2 2 1 1 1
8 8 7 7 7 7 6 5 5 4 4 4 4 4 3 3 2 3 3 5 5 5 5 5 5 6 6 4 3 3 3 3 4 4 3 3 2 2 1 1 1 1 1
8 8 8 8 7 7 6 5 5 4 4 4 3 3 3 3 4 4 5 4 5 5 5 5 5 6 7 9 9 8 6 4 3 3 3 3 3 2 2 2 2 2 1
8 8 8 8 7 7 6 6 5 4 4 4 3 3 4 4 5 6 6 5 5 5 5 4 4 5 6 4 7 9 9 9 6 4 4 3 3 2 3 2 2 1 1
8 8 8 8 8 7 6 6 5 4 4 3 3 3 4 5 6 7 7 5 4 4 4 4 5 4 3 4 4 5 5 6 7 6 5 4 5 4 4 3 2 0 1
8 9 9 9 8 8 7 6 5 4 4 3 3 4 4 5 7 7 6 4 4 4 3 3 4 4 5 5 4 4 4 3 6 9 9 8 7 6 5 3 3 2 1
9 9 8 9 9 8 7 6 5 5 4 4 4 4 4 5 7 7 6 3 4 3 3 3 3 5 5 4 3 4 3 3 3 3 3 3 4 4 4 4 3 2 0
8 8 8 8 8 8 7 6 6 5 5 5 5 4 4 5 7 8 7 3 4 4 3 3 3 5 5 4 3 3 3 4 3 2 2 2 2 2 2 3 3 3 2
8 8 8 8 7 7 7 6 6 6 6 5 5 4 3 4 6 7 8 6 5 4 3 3 4 6 5 5 3 3 4 3 2 1 1 1 2 2 2 3 2 1 2
8 7 7 7 7 7 7 7 6 6 5 5 5 5 4 4 5 9 10 9 8 4 4 6 6 7 6 4 5 5 3 2 1 2 2 2 2 3 2 1 0 2 4
7 7 7 7 7 7 6 6 6 7 6 6 6 6 5 4 5 5 5 5 7 5 3 5 7 7 5 5 5 4 3 3 3 3 2 2 3 3 2 2 2 1 2
6 6 7 6 7 6 6 6 7 7 7 7 7 6 6 6 8 12 8 6 5 5 5 3 3 3 4 3 3 4 4 4 4 3 3 3 3 3 3 3 2 2 3
5 6 5 5 5 5 6 5 7 7 10 12 10 9 7 9 10 13 14 13 13 12 7 4 5 5 6 6 5 5 5 5 5 4 4 4 4 4 4 3 3 4 5
5 5 5 5 6 6 6 6 5 6 10 12 13 13 12 11 11 12 13 13 13 13 8 6 6 6 6 6 6 6 6 5 5 5 5 5 4 4 4 4 5 5 6
4 5 5 5 5 6 6 6 5 5 5 5 10 15 15 14 13 13 13 11 8 9 6 7 7 7 6 6 6 6 5 5 5 5 5 5 6 5 5 6 6 6 6
3 3 4 4 4 5 5 5 5 6 6 5 4 7 13 14 15 15 13 8 8 8 8 8 8 8 7 7 7 7 7 7 6 6 7 7 7 7 7 7 7 10 9
3 4 4 4 4 4 5 5 6 6 6 6 6 6 6 7 7 8 9 8 8 9 9 9 9 9 8 8 7 7 7 7 8 8 8 8 8 7 8 9 8 8 8
2 3 5 4 4 5 5 6 6 6 6 6 7 7 10 7 8 8 8 9 10 10 9 9 8 8 9 8 8 8 9 9 8 8 8 8 8 8 8 8 8 9 8
2 2 3 4 4 4 5 5 6 6 7 7 6 7 13 8 7 7 8 9 9 8 8 8 8 8 8 9 9 9 10 10 9 9 9 9 8 9 8 8 9 8 8
2 3 3 4 4 6 6 5 5 6 6 7 6 6 6 7 7 8 8 8 7 7 7 7 8 8 8 11 12 10 10 10 10 9 9 9 9 9 9 9 10 10 10
3 3 4 4 4 4 4 5 5 6 6 6 6 6 6 7 7 8 8 7 7 7 7 8 8 10 11 11 13 14 15 15 14 13 12 10 10 9 9 9 9 11 10
3 3 4 4 4 4 4 5 5 5 5 6 6 6 6 6 7 7 7 7 7 8 9 9 10 11 13 14 14 15 17 18 17 15 13 10 10 10 10 9 9 10 10
4 4 4 3 4 4 4 5 5 5 5 5 6 6 6 6 7 7 6 6 7 7 7 7 10 12 13 14 16 17 18 19 19 18 15 10 10 10 10 9 11 10 10
Wind_Direction
129 123 119 114 107 106 109 108 107 107 111 111 106 104 100 89 71 88 106 104 118 107 90 106 98 82 84 53 57 85 98 142 158 119 103 108 97 84 80 77 77 76 66
128 122 120 113 109 108 106 101 99 100 97 94 90 89 84 76 64 78 86 85 101 111 102 102 97 86 75 56 69 81 83 90 137 141 125 122 105 106 98 86 82 83 79
129 128 126 123 119 115 109 104 100 96 92 88 87 89 88 81 73 78 94 92 90 90 95 103 102 103 92 75 74 77 70 71 93 124 124 117 111 117 105 82 83 70 80
135 135 132 129 123 117 111 107 103 101 101 95 91 88 85 81 82 85 97 97 91 82 80 83 82 90 103 103 92 87 92 90 97 109 112 115 120 131 99 85 72 33 37
137 135 131 124 117 115 114 111 106 101 101 98 98 99 97 92 93 105 114 117 116 105 88 79 77 82 83 87 88 75 89 104 110 115 122 118 119 105 110 81 72 357 38
142 139 133 129 128 129 129 128 124 118 115 111 113 117 115 108 117 124 123 116 119 118 110 99 94 84 86 85 82 75 77 98 122 127 132 137 136 122 104 86 73 65 349
146 144 143 141 140 141 140 137 136 133 123 121 120 116 117 125 139 135 127 121 121 124 125 120 109 99 86 85 86 78 67 65 74 117 126 137 132 127 114 88 74 83 222
151 151 150 147 148 146 143 143 139 129 129 132 128 125 126 141 147 143 135 122 123 126 128 129 124 118 118 110 98 87 73 57 59 65 95 95 99 97 105 128 148 13 308
160 160 158 156 154 153 154 154 145 140 143 146 141 141 140 146 152 147 139 126 127 125 118 119 128 132 139 131 119 115 102 89 83 86 91 94 96 95 89 83 72 62 15
170 164 159 158 157 159 161 157 150 151 158 155 153 157 158 159 167 165 158 141 145 146 136 128 138 151 157 149 140 144 145 150 127 109 96 101 106 105 93 103 124 127 133
154 151 152 154 156 156 154 153 152 154 158 161 164 172 174 177 180 182 181 162 164 162 167 173 181 176 173 174 159 155 160 146 145 150 150 145 131 126 110 99 110 139 170
140 146 151 152 154 156 154 156 158 160 167 175 178 185 191 184 186 194 195 195 179 164 176 177 181 183 187 189 182 175 158 137 127 150 154 163 159 151 128 109 99 114 212
142 150 153 153 154 159 164 166 168 175 182 185 186 193 197 191 200 208 207 204 203 185 181 185 185 192 197 203 209 204 182 162 173 187 198 202 179 156 137 127 234 270 272
155 160 161 163 164 168 171 175 180 188 191 189 194 199 197 193 198 200 202 207 206 201 188 197 199 204 206 217 222 214 187 192 193 200 207 193 164 157 178 192 215 252 283
164 167 168 172 173 179 185 192 195 200 196 194 198 195 194 205 211 203 193 194 188 189 173 169 182 193 206 213 213 208 202 206 215 200 201 198 194 193 207 204 208 220 241
171 173 176 178 181 183 187 199 211 209 213 213 209 203 209 213 213 212 211 209 207 203 195 194 205 209 213 214 214 213 209 208 205 201 203 203 205 209 218 219 221 229 246
186 183 181 185 188 192 193 197 209 220 223 225 224 222 219 217 218 216 216 215 214 211 211 210 215 216 217 215 213 212 214 209 199 199 204 207 209 214 221 228 231 238 246
197 194 190 193 194 197 199 202 204 206 212 224 227 228 226 225 223 220 219 214 219 218 215 217 221 221 219 217 216 215 214 207 202 205 207 210 211 216 224 230 231 236 244
210 205 199 198 198 200 201 204 210 214 219 217 209 222 226 227 226 226 220 215 215 219 219 221 222 221 220 218 216 214 213 213 210 207 212 214 215 217 226 230 233 242 244
234 227 212 204 203 205 206 211 215 218 221 222 222 218 205 208 217 220 218 215 220 223 222 223 222 220 219 217 216 215 216 218 216 217 217 217 217 219 226 230 232 235 239
255 244 228 220 218 217 216 219 221 220 223 228 230 222 212 211 219 219 219 221 223 225 225 224 223 220 219 216 215 217 218 222 220 220 220 219 217 221 225 228 231 234 239
265 252 240 234 231 229 230 226 225 227 230 235 239 235 234 228 225 227 227 228 228 227 224 221 224 222 216 214 214 217 222 224 223 220 220 220 220 222 224 227 230 232 236
282 264 255 248 240 245 244 235 232 232 235 236 236 231 231 230 231 233 235 233 230 229 225 223 227 228 223 219 217 217 223 225 221 216 218 220 221 223 224 227 229 232 237
283 276 268 261 253 248 247 244 240 240 242 243 240 239 237 237 239 239 238 236 233 232 227 226 229 231 228 225 225 225 228 230 225 220 215 218 220 222 223 227 231 234 238
278 277 273 268 266 263 260 258 254 249 248 246 244 243 243 244 245 245 241 238 237 236 232 229 232 234 233 230 229 229 231 233 231 225 218 220 223 222 223 228 231 235 236
280 280 280 278 274 270 268 267 266 265 261 257 252 248 246 245 247 247 245 242 242 241 239 235 235 235 237 238 237 236 236 238 237 232 225 222 221 224 224 230 231 234 237
Height
1494 1497 1500 1502 1505 1508 1509 1511 1512 1513 1515 1515 1516 1517 1517 1517 1517 1517 1517 1516 1516 1516 1516 1516 1517 1517 1517 1518 1518 1519 1519 1520 1520 1520 1521 1521 1521 1521 1520 1520 1519 1519 1519
1491 1493 1496 1498 1501 1503 1505 1506 1507 1509 1510 1511 1511 1512 1512 1512 1512 1512 1512 1512 1512 1511 1512 1512 1512 1513 1513 1513 1514 1514 1514 1515 1516 1516 1516 1517 1517 1517 1517 1517 1517 1517 1517
1488 1490 1493 1495 1497 1499 1501 1502 1503 1504 1505 1506 1507 1507 1507 1507 1507 1507 1507 1507 1507 1507 1507 1508 1508 1509 1509 1509 1509 1510 1510 1511 1511 1512 1513 1513 1514 1514 1514 1514 1514 1514 1514
1485 1487 1489 1491 1493 1495 1497 1498 1499 1500 1501 1502 1502 1502 1502 1503 1503 1503 1503 1503 1503 1503 1504 1504 1504 1505 1505 1506 1506 1506 1507 1507 1507 1508 1509 1509 1510 1510 1511 1511 1511 1511 1511
1482 1485 1487 1489 1491 1492 1494 1495 1495 1496 1497 1497 1498 1498 1498 1498 1499 1499 1499 1499 1499 1500 1500 1501 1501 1501 1502 1502 1503 1503 1503 1504 1504 1505 1505 1506 1507 1507 1508 1508 1509 1509 1508
1480 1482 1484 1486 1488 1489 1490 1491 1492 1493 1493 1494 1494 1494 1494 1495 1495 1495 1495 1496 1496 1496 1497 1497 1498 1498 1498 1499 1499 1500 1501 1501 1501 1502 1503 1503 1504 1504 1505 1506 1506 1506 1506
1477 1479 1481 1483 1485 1486 1487 1488 1488 1489 1489 1490 1490 1490 1491 1491 1491 1491 1492 1492 1493 1493 1494 1494 1495 1495 1496 1496 1497 1497 1498 1498 1499 1500 1500 1501 1501 1502 1502 1503 1503 1503 1503
1475 1477 1478 1480 1482 1483 1484 1484 1485 1485 1486 1486 1487 1487 1487 1488 1488 1488 1489 1489 1490 1491 1491 1492 1492 1493 1493 1494 1494 1495 1496 1496 1497 1497 1498 1498 1499 1500 1500 1501 1501 1501 1501
1472 1474 1475 1477 1478 1479 1480 1481 1481 1482 1483 1483 1483 1484 1484 1485 1485 1486 1486 1487 1487 1488 1489 1489 1490 1491 1491 1492 1492 1493 1493 1494 1494 1495 1496 1496 1497 1497 1497 1498 1498 1498 1498
1469 1471 1472 1474 1475 1476 1477 1477 1478 1479 1479 1480 1480 1481 1482 1482 1483 1483 1484 1484 1485 1486 1487 1487 1488 1489 1489 1489 1490 1490 1491 1492 1492 1493 1493 1494 1494 1495 1495 1496 1496 1496 1495
1466 1467 1469 1470 1471 1472 1473 1474 1475 1475 1476 1477 1478 1478 1479 1479 1480 1481 1481 1482 1483 1483 1484 1485 1486 1486 1487 1487 1488 1488 1489 1490 1490 1491 1491 1492 1492 1492 1493 1493 1493 1493 1493
1462 1464 1465 1467 1468 1469 1470 1470 1471 1472 1473 1473 1474 1475 1476 1476 1477 1478 1479 1480 1480 1481 1482 1483 1483 1484 1484 1485 1485 1486 1487 1487 1488 1488 1489 1489 1490 1490 1490 1490 1490 1490 1490
1459 1460 1462 1463 1464 1465 1466 1467 1468 1468 1469 1470 1471 1472 1472 1473 1474 1475 1476 1477 1478 1478 1479 1480 1480 1481 1482 1482 1483 1484 1484 1485 1485 1486 1486 1486 1487 1487 1487 1487 1487 1487 1487
1456 1457 1458 1459 1460 1461 1462 1463 1464 1464 1465 1466 1467 1468 1469 1470 1471 1472 1473 1474 1475 1475 1476 1477 1478 1478 1479 1480 1480 1481 1481 1482 1482 1483 1483 1483 1483 1484 1484 1484 1483 1483 1483
1453 1454 1455 1456 1457 1458 1459 1459 1460 1461 1462 1463 1464 1465 1466 1467 1468 1469 1469 1470 1471 1472 1473 1473 1474 1475 1476 1476 1477 1478 1478 1479 1479 1479 1479 1480 1480 1480 1480 1480 1479 1479 1478
1450 1450 1451 1452 1453 1454 1455 1455 1456 1457 1458 1459 1460 1461 1462 1463 1464 1464 1466 1467 1468 1468 1469 1469 1470 1471 1472 1473 1473 1474 1474 1475 1475 1475 1475 1476 1476 1475 1475 1475 1475 1474 1473
1446 1447 1448 1448 1449 1450 1450 1451 1452 1453 1454 1455 1456 1457 1458 1459 1460 1461 1462 1463 1463 1464 1464 1465 1466 1467 1468 1468 1469 1469 1470 1471 1471 1471 1471 1471 1471 1471 1471 1470 1470 1469 1469
1443 1443 1444 1445 1445 1446 1446 1447 1448 1448 1449 1450 1451 1452 1453 1454 1455 1456 1457 1458 1458 1459 1459 1460 1461 1462 1463 1464 1464 1465 1465 1466 1466 1466 1466 1466 1466 1466 1465 1465 1464 1464 1463
1439 1440 1440 1441 1441 1442 1442 1442 1443 1444 1445 1445 1446 1447 1448 1449 1450 1451 1452 1452 1453 1453 1454 1455 1456 1457 1458 1458 1459 1459 1460 1460 1460 1460 1461 1461 1460 1460 1459 1459 1459 1458 1458
1436 1436 1436 1436 1437 1437 1438 1438 1438 1439 1440 1440 1441 1442 1443 1444 1444 1445 1446 1446 1447 1448 1449 1450 1450 1451 1452 1453 1453 1453 1453 1454 1454 1454 1454 1454 1454 1454 1453 1453 1453 1452 1451
1432 1432 1432 1432 1432 1433 1433 1433 1434 1434 1435 1435 1436 1437 1437 1438 1438 1439 1439 1440 1441 1441 1442 1443 1444 1445 1445 1446 1446 1446 1446 1447 1447 1447 1448 1448 1447 1447 1447 1446 1446 1445 1445
1428 1428 1428 1428 1428 1428 1428 1429 1429 1429 1429 1430 1430 1431 1431 1431 1431 1432 1432 1433 1434 1435 1436 1436 1437 1437 1438 1439 1439 1439 1439 1439 1440 1440 1440 1440 1440 1440 1439 1439 1439 1438 1438
1425 1424 1424 1424 1424 1424 1424 1424 1424 1424 1424 1424 1424 1425 1425 1425 1425 1425 1426 1426 1427 1427 1428 1428 1429 1429 1430 1430 1431 1431 1431 1431 1432 1432 1432 1432 1432 1432 1432 1431 1431 1431 1430
1421 1420 1420 1419 1419 1419 1419 1419 1419 1419 1419 1419 1419 1419 1419 1419 1419 1419 1419 1419 1419 1419 1420 1420 1420 1421 1421 1422 1422 1422 1423 1423 1424 1424 1424 1424 1423 1424 1424 1423 1423 1423 1423
1416 1416 1415 1415 1414 1414 1414 1413 1413 1413 1413 1413 1413 1412 1412 1412 1412 1412 1412 1412 1412 1412 1412 1412 1412 1413 1413 1413 1413 1414 1414 1414 1415 1415 1415 1415 1415 1415 1415 1415 1415 1415 1415
1412 1412 1411 1410 1410 1409 1409 1408 1408 1407 1407 1407 1406 1406 1406 1406 1405 1405 1405 1405 1404 1404 1404 1404 1404 1404 1405 1405 1405 1405 1405 1405 1406 1406 1406 1406 1406 1406 1407 1407 1407 1407 1407